Fort Lauderdale, FL

12:54 PM EDT on March 27, 2017 (GMT -0400)
Fort Lauderdale Executive

Weather History for KFXE - October, 2013

Change the Weather History Date:

Sunday, October 27, 2013

  Actual Average Record
Temperature  
Mean Temperature 75 °F -  
Max Temperature 82 °F 85 °F 90 °F (1981)
Min Temperature 68 °F 67 °F 52 °F (1958)
Cooling Degree Days 10    
Growing Degree Days 25 (Base 50)    
Moisture  
Dew Point 62 °F    
Average Humidity 63    
Maximum Humidity 76    
Minimum Humidity 49    
Precipitation  
Precipitation 0.00 in - - ()
Sea Level Pressure  
Sea Level Pressure 30.07 in    
Wind  
Wind Speed 6 mph (NNE)    
Max Wind Speed 12 mph    
Max Gust Speed 18 mph    
Visibility 10 miles    
Events      
Averages and records for this station are not official NWS values.
T = Trace of Precipitation, MM = Missing Value Source: NWS Daily Summary

Daily Weather History Graph

Daily Weather History Graph

Search for Another Location

Airport or City:

Trip Planner

Search our weather history database for the weather conditions in past years. The results will help you decide how hot, cold, wet, or windy it might be!

Date:

Astronomy

Oct. 27, 2013 Rise Set
Actual Time 7:26 AM EDT 6:42 PM EDT
Civil Twilight 7:02 AM EDT 7:05 PM EDT
Nautical Twilight 6:35 AM EDT 7:32 PM EDT
Astronomical Twilight 6:08 AM EDT 7:59 PM EDT
Moon 1:00 AM EDT 2:14 PM EDT
Length of Visible Light 12h 02m
Length of Day
11h 15m
Last Quarter, 44% of the Moon is Illuminated
Oct 27
Last Quarter
Nov 3
New
Nov 10
First Quarter
Nov 17
Full
Nov 25
Last Quarter

Hourly Weather History & Observations

Time (EDT) Temp. Heat Index Dew Point Humidity Pressure Visibility Wind Dir Wind Speed Gust Speed Precip Events Conditions
12:53 AM 71.1 °F - 62.1 °F 73% 30.09 in 10.0 mi NNW 5.8 mph - N/A   Partly Cloudy
1:53 AM 70.0 °F - 62.1 °F 76% 30.07 in 10.0 mi North 3.5 mph - N/A   Partly Cloudy
2:53 AM 70.0 °F - 62.1 °F 76% 30.06 in 10.0 mi North 3.5 mph - N/A   Partly Cloudy
3:53 AM 70.0 °F - 61.0 °F 73% 30.05 in 10.0 mi North 3.5 mph - N/A   Partly Cloudy
4:53 AM 69.1 °F - 60.1 °F 73% 30.05 in 10.0 mi NNW 4.6 mph - N/A   Clear
5:53 AM 69.1 °F - 60.1 °F 73% 30.05 in 10.0 mi North 3.5 mph - N/A   Clear
6:53 AM 68.0 °F - 60.1 °F 76% 30.06 in 10.0 mi North 3.5 mph - N/A   Clear
7:53 AM 68.0 °F - 60.1 °F 76% 30.06 in 10.0 mi North 3.5 mph - N/A   Clear
8:53 AM 71.1 °F - 60.1 °F 68% 30.08 in 10.0 mi North 6.9 mph - N/A   Scattered Clouds
9:53 AM 75.9 °F - 62.1 °F 62% 30.09 in 10.0 mi North 4.6 mph - N/A   Scattered Clouds
10:53 AM 80.1 °F 81.2 °F 62.1 °F 54% 30.11 in 10.0 mi NE 6.9 mph - N/A   Scattered Clouds
11:53 AM 82.0 °F 82.7 °F 61.0 °F 49% 30.10 in 10.0 mi East 6.9 mph - N/A   Scattered Clouds
12:53 PM 82.0 °F 82.7 °F 61.0 °F 49% 30.09 in 10.0 mi ENE 11.5 mph - N/A   Scattered Clouds
1:53 PM 82.9 °F 83.7 °F 62.1 °F 49% 30.07 in 10.0 mi East 11.5 mph - N/A   Scattered Clouds
2:53 PM 82.9 °F 83.7 °F 62.1 °F 49% 30.04 in 10.0 mi ENE 9.2 mph 18.4 mph N/A   Scattered Clouds
3:53 PM 82.0 °F 83.0 °F 62.1 °F 51% 30.04 in 10.0 mi NE 11.5 mph - N/A   Scattered Clouds
4:53 PM 80.1 °F 81.7 °F 64.0 °F 58% 30.05 in 10.0 mi ENE 8.1 mph - N/A   Scattered Clouds
5:53 PM 79.0 °F - 63.0 °F 58% 30.05 in 10.0 mi NE 9.2 mph - N/A   Scattered Clouds
6:53 PM 77.0 °F - 63.0 °F 62% 30.05 in 10.0 mi ENE 6.9 mph - N/A   Clear
7:53 PM 77.0 °F - 63.0 °F 62% 30.06 in 10.0 mi NE 5.8 mph - N/A   Partly Cloudy
8:53 PM 75.9 °F - 63.0 °F 64% 30.08 in 10.0 mi ENE 5.8 mph - N/A   Clear
9:53 PM 75.9 °F - 63.0 °F 64% 30.09 in 10.0 mi ENE 9.2 mph - N/A   Partly Cloudy
10:53 PM 75.0 °F - 62.1 °F 64% 30.10 in 10.0 mi NE 5.8 mph - N/A   Clear
11:53 PM 75.0 °F - 61.0 °F 62% 30.10 in 10.0 mi ENE 4.6 mph - N/A   Clear